Regional Weather Roundup
Issued by NWS

Home | Current Version | Previous Version | Graphics & Text | Print | Product List | Glossary Off
Versions: 1 2 3 4 5 6 7 8 9 10 11 12 13 14 15 16 17 18 19 20 21 22 23 24 25 26 27 28 29 30 31 32 33 34 35 36 37 38 39 40 41 42 43 44 45 46 47 48 49 50

000
ASUS43 KTOP 051459
RWRKS

WEATHER ROUNDUP FOR KANSAS
NATIONAL WEATHER SERVICE GOODLAND KS
1000 AM CDT THU MAY 05 2016

NOTE:  "FAIR" INDICATES FEW OR NO CLOUDS BELOW 12,000 FEET WITH NO
SIGNIFICANT WEATHER AND/OR OBSTRUCTIONS TO VISIBILITY.

KSZ001>006-013>018-027>032-041>047-051600-
NORTHWEST KANSAS

CITY           SKY/WX    TMP DP  RH WIND       PRES   REMARKS
GOODLAND       SUNNY     67  44  43 S17       30.11F
HAYS           SUNNY     66  45  45 SW3       30.13S
HILL CITY      SUNNY     63  47  55 CALM      30.13F
RUSSELL        SUNNY     65  48  54 CALM      30.12R
$$

KSZ061>065-074>080-084>089-051600-
SOUTHWEST KANSAS

CITY           SKY/WX    TMP DP  RH WIND       PRES   REMARKS
DODGE CITY     SUNNY    N/A N/A N/A MISG      30.15S
ELKHART          N/A     68  43  40 S15         N/A
GARDEN CITY    SUNNY     67  45  45 S12       30.13S
GREAT BEND     SUNNY     63  48  59 CALM      30.14R
LIBERAL        SUNNY     64  48  55 S9        30.15S
$$

KSZ066>073-081>083-090>101-051600-
SOUTHEAST KANSAS

CITY           SKY/WX    TMP DP  RH WIND       PRES   REMARKS
CHANUTE        SUNNY     66  43  43 NW6       30.11R
COFFEYVILLE    SUNNY     65  46  50 NW8       30.10S
HUTCHINSON     SUNNY     67  46  47 W7        30.14R
MEDICINE LODGE   N/A     68  45  43 CALM      30.14R
NEWTON         SUNNY     64  41  42 NW3       30.15S
PARSONS        SUNNY     66  45  46 NW7       30.11S
WICHITA INTL   SUNNY     66  42  41 N3        30.13R
WICHITA JABRA  SUNNY     66  44  45 NE3       30.12S
WINFIELD       SUNNY     65  47  52 NW3       30.24R
$$

KSZ007>012-019>026-033>040-048>060-102>105-051600-
NORTHEAST KANSAS

CITY           SKY/WX    TMP DP  RH WIND       PRES   REMARKS
CONCORDIA      SUNNY     65  38  36 CALM      30.12R
EMPORIA        SUNNY     64  44  48 NW5       30.11S
LAWRENCE       SUNNY     64  47  53 NW5       30.10R
MANHATTAN      SUNNY     63  48  58 S3        30.12R
OLATHE IND     SUNNY     61  44  53 NW6       30.10R
OLATHE EXE     SUNNY     62  41  46 CALM      30.09R
SALINA         SUNNY     64  45  49 NW3       30.14R
TOPEKA BILLARD SUNNY     63  46  54 W8        30.10R
TOPEKA FORBES  SUNNY     68  44  42 NW8       30.10R
$$



USA.gov is the U.S. government's official web portal to all federal, state and local government web resources and services.